Powrót do katalogu

FLOCK 4H 16

AktywnyNaukaSSO
NORAD 66719·PAYLOAD·🇺🇸 United States

Wystrzelony Nov 28, 2025 z Vandenberg Space Force Base

Loading…

Następne Przeloty (najbliższe 24 godziny)

TLE

ŚwieżeSource: CelesTrak SupGP

Epoka: Sep 14, 2026, 12:45 UTC

1 66719C 25276BF  26257.53140046  .00010828  00000+0  49200-3 0  2579
2 66719  97.4161 329.7017 0005612  65.5251 260.0830 15.20814088    13

Śledź FLOCK 4H 16 w czasie rzeczywistym z AllMySat

Download on the App Store